This is the latest recevied weather packets stored in our database for station/object 4S6DRJ-13. If no packets are shown the sender has not sent any weather packets the latest 10 day(s).
| Time | Temp. | Humidity | Pressure | Rain* | Wind** | Luminosity | Snow |
|---|---|---|---|---|---|---|---|
| 1788325794 | 31.67° C | 68% | 1010.6 hPa | 0 mm | 1.79 m/s, 355° | 1116 W/m² | - |
| 1788325732 | 31.67° C | 68% | 1010.5 hPa | 0 mm | 2.24 m/s, 251° | 1114 W/m² | - |
| 1788325671 | 31.67° C | 68% | 1010.7 hPa | 0 mm | 1.34 m/s, 199° | 1117 W/m² | - |
| 1788325610 | 31.67° C | 68% | 1010.6 hPa | 0 mm | 1.79 m/s, 213° | 1118 W/m² | - |
| 1788325549 | 31.67° C | 69% | 1010.5 hPa | 0 mm | 0.89 m/s, 176° | 258 W/m² | - |
| 1788325488 | 31.67° C | 69% | 1010.5 hPa | 0 mm | 1.34 m/s, 251° | 1117 W/m² | - |
| 1788325427 | 31.67° C | 69% | 1010.6 hPa | 0 mm | 0 m/s | 417 W/m² | - |
| 1788325366 | 31.67° C | 69% | 1010.7 hPa | 0 mm | 2.24 m/s, 256° | 1125 W/m² | - |
| 1788325305 | 31.67° C | 67% | 1010.6 hPa | 0 mm | 0.89 m/s, 344° | 1119 W/m² | - |
| 1788325244 | 31.67° C | 68% | 1010.6 hPa | 0 mm | 1.79 m/s, 296° | 1119 W/m² | - |
| 1788325183 | 31.67° C | 69% | 1010.7 hPa | 0 mm | 1.34 m/s, 235° | 1117 W/m² | - |
| 1788325122 | 31.67° C | 69% | 1010.6 hPa | 0 mm | 0.89 m/s, 260° | 1116 W/m² | - |
| 1788325061 | 31.67° C | 69% | 1010.5 hPa | 0 mm | 0.45 m/s, 190° | 1110 W/m² | - |
| 1788325001 | 31.67° C | 67% | 1010.6 hPa | 0 mm | 2.68 m/s, 174° | 1116 W/m² | - |
| 1788324939 | 31.67° C | 69% | 1010.5 hPa | 0 mm | 2.24 m/s, 212° | 1114 W/m² | - |
| 1788324878 | 31.11° C | 69% | 1010.5 hPa | 0 mm | 0.89 m/s, 172° | 1111 W/m² | - |
| 1788324818 | 31.11° C | 68% | 1010.5 hPa | 0 mm | 0.89 m/s, 204° | 1108 W/m² | - |
| 1788324756 | 31.11° C | 69% | 1010.4 hPa | 0 mm | 1.79 m/s, 214° | 1108 W/m² | - |
| 1788324695 | 31.11° C | 69% | 1010.5 hPa | 0 mm | 1.79 m/s, 218° | 1108 W/m² | - |
| 1788324634 | 31.11° C | 69% | 1010.7 hPa | 0 mm | 0.89 m/s, 238° | 1111 W/m² | - |
| 1788324573 | 31.11° C | 70% | 1010.6 hPa | 0 mm | 1.34 m/s, 70° | 999 W/m² | - |
| 1788324512 | 31.11° C | 69% | 1010.5 hPa | 0 mm | 1.34 m/s, 286° | 458 W/m² | - |
| 1788324451 | 31.11° C | 69% | 1010.7 hPa | 0 mm | 0.89 m/s, 295° | 1121 W/m² | - |
| 1788324390 | 31.11° C | 70% | 1010.8 hPa | 0 mm | 0.89 m/s, 56° | 1116 W/m² | - |
| 1788324329 | 31.11° C | 70% | 1010.7 hPa | 0 mm | 2.24 m/s, 47° | 1108 W/m² | - |
* Rain latest hour (hover to see other rain measurements)
** Current wind speed in m/s (hover to see current wind gust speed)